Location: Hepcat Sky Observatory
(29.9800°N, 95.6500°W)
Time: 07:19:45
(UTC-05:00)

Daily predictions for brighter satellites

Satellite Brightness Start Highest point End
(mag) Time Altitude Azimuth Time Altitude Azimuth Time Altitude Azimuth
Cosmos 2360 Rocket 2.4 19:00:33 10° N 19:06:02 49° ENE 19:11:29 10° SE
Cosmos 468 4.5 19:02:01 10° S 19:07:12 78° ESE 19:12:25 10° NNE
CSL-04 Rocket 4.3 19:01:57 10° S 19:07:16 64° WSW 19:12:33 10° NNW
SPOT 3 Rocket 4.2 19:06:15 10° SE 19:10:50 33° ENE 19:15:26 10° N
Abrixas 4.3 19:10:44 10° W 19:12:13 16° NW 19:13:43 10° N
Cosmos 2322 Rocket 3.4 19:10:06 10° NNW 19:15:28 47° WSW 19:20:48 10° S
Cosmos 2219 3.3 19:09:58 10° S 19:15:34 57° ESE 19:21:11 10° NNE
Hubble Space Telescope 2.0 19:12:18 10° SW 19:15:55 30° SSE 19:19:33 10° E
COSMOS 2428 3.7 19:11:54 10° N 19:16:30 25° ENE 19:21:06 10° ESE
MTI 4.5 19:13:29 10° N 19:16:38 57° WNW 19:19:46 10° SSW
CZ-4 R/B 1.7 19:13:03 10° S 19:17:15 79° WSW 19:21:26 10° NNW
CORIOLIS 4.3 19:12:44 10° S 19:18:06 82° WSW 19:23:31 10° NNW
Cosmos 2333 Rocket 3.9 19:16:36 10° NNE 19:19:12 13° ENE 19:21:36 10° E
Cosmos 1452 Rocket 3.6 19:14:41 10° N 19:19:50 55° ENE 19:24:58 10° SSE
Cosmos 2221 2.5 19:17:39 10° S 19:21:53 60° E 19:26:10 10° NNE
BREEZE-M R/B 1.9 19:19:56 10° SSW 19:22:16 55° SE 19:25:04 10° NE
Iridium 4 Rocket 4.1 19:17:16 10° SSE 19:22:23 42° E 19:27:48 10° NNE
CZ-4 R/B 4.4 19:19:18 10° SSE 19:23:23 71° ENE 19:27:31 10° N
Delta 2 Rocket 4.1 19:19:56 10° WNW 19:23:34 34° N 19:26:27 13° ENE
Cosmos 2297 Rocket 3.6 19:20:35 10° SE 19:23:55 16° E 19:27:03 11° ENE
Cosmos 2098 Rocket 3.6 19:21:29 10° SSE 19:25:26 41° E 19:30:25 10° NNE
Delta 198 4.2 19:23:59 10° WSW 19:27:31 33° S 19:30:28 12° ESE
ERS-2 2.7 19:24:48 10° S 19:28:26 62° WSW 19:32:06 10° NNW
GP-B 3.6 19:24:29 10° N 19:28:54 65° W 19:33:16 10° SSW
SKYMED 2 3.7 19:24:35 10° N 19:28:56 83° WNW 19:33:16 10° SSW
Cosmos 44 4.0 19:25:08 10° SW 19:29:24 49° WNW 19:33:36 10° NNE
Cosmos 1727 Rocket 4.1 19:23:24 10° N 19:29:46 86° W 19:36:04 10° S
Cosmos 1743 Rocket 4.3 19:26:01 10° NNW 19:30:21 58° W 19:34:42 10° S
Cosmos 921 Rocket 2.9 19:29:19 10° N 19:33:42 67° ENE 19:37:59 10° SSE
FALCON 9 R/B 2.4 19:31:43 10° W 19:33:44 26° SSW 19:36:57 10° SE
Cosmos 1726 2.2 19:34:05 10° S 19:37:40 52° E 19:41:16 10° NNE
Fermi 4.5 19:35:21 10° WSW 19:39:17 45° S 19:42:06 18° ESE
ASTRO E2 2.6 19:37:25 10° W 19:41:27 86° S 19:44:03 21° ESE
ATLAS 2A CENTAUR R/B 1.5 19:41:23 10° SW 19:42:49 22° SSE 19:43:19 20° SE
Cosmos 2322 3.7 19:38:08 10° NNW 19:43:54 86° ENE 19:49:34 10° SSE
Cosmos 1315 Rocket 3.0 19:43:45 10° N 19:47:50 76° W 19:51:57 10° S
SL-24 R/B - RUBIN 2 3.9 19:47:44 10° NNW 19:52:18 68° WSW 19:56:34 10° SSE
Cosmos 2219 Rocket 2.9 19:48:20 10° N 19:53:15 31° ENE 19:55:32 23° ESE
NOAA 12 4.0 19:48:21 10° SSE 19:53:36 70° ENE 19:58:53 10° N
Cosmos 2251 Rocket 4.2 19:49:21 10° SSE 19:53:58 32° E 19:56:38 20° NE
METEOR-M 4.4 19:50:27 10° S 19:55:46 70° WSW 20:01:06 10° NNW
SAR-Lupe-3 4.4 19:55:02 10° NNE 19:58:37 89° ESE 20:02:11 10° SSW
DELTA 2 R/B (1) 3.7 19:53:39 10° WNW 19:59:10 59° NNE 20:01:54 29° E
Cosmos 1420 Rocket 4.1 19:56:55 10° NNW 20:02:13 77° WSW 20:07:27 10° S
CZ-4C R/B 3.5 20:02:05 10° WSW 20:06:44 36° NW 20:11:53 10° NNE
SWAS 4.3 20:04:09 10° SSW 20:08:23 72° ESE 20:10:41 26° NNE
NOSS 0 Rocket 4.5 20:05:23 10° N 20:10:55 34° ENE 20:11:40 33° ENE
Sich 1 3.0 20:11:36 10° N 20:15:56 61° E 20:18:37 22° SSE
Thor Agena Rocket 3.7 20:12:49 10° N 20:17:52 73° WNW 20:22:52 10° SSW
H-2A R/B 3.5 20:19:07 38° NNE 20:19:07 38° NNE 20:21:44 10° N
Cosmos 2333 4.2 20:14:01 10° NNW 20:19:47 89° ENE 20:25:33 10° SSE
CZ-3 Stage 3 3.1 20:22:56 10° W 20:23:20 15° W 20:23:20 15° W
In-Cosmos 22 Rocket 4.2 20:22:09 10° N 20:27:51 59° E 20:30:28 32° SSE
Cosmos 2237 Rocket 3.3 20:24:02 10° N 20:27:16 27° NNE 20:27:16 27° NNE
Cosmos 1805 Rocket 4.3 20:25:32 10° NNW 20:29:49 53° W 20:34:06 10° S
Atlas Centaur 2 2.6 20:25:22 10° W 20:29:50 45° SSW 20:31:24 36° SSE
Cosmos 2227 Rocket 2.1 20:24:20 10° SSW 20:29:59 90° NNW 20:34:03 20° NNE
Gbstr 26 Del rocket 4.1 20:27:48 10° NNW 20:33:05 47° NE 20:33:16 46° NE
USA 267 3.1 20:32:24 36° NE 20:35:23 80° SE 20:41:55 10° SW
Cosmos 1300 4.3 20:31:59 10° SSW 20:35:30 35° W 20:39:02 10° NNW
ALOS 3.7 20:33:07 10° SSW 20:37:25 37° W 20:41:45 10° NNW
Cosmos 1328 Rocket 3.5 20:33:43 10° S 20:37:58 79° WSW 20:37:58 79° WSW
Cosmos 1666 Rocket 3.7 20:34:47 10° NNW 20:39:05 69° W 20:40:04 50° SSW
Cosmos 1633 Rocket 3.8 20:40:15 10° N 20:43:25 46° NNW 20:43:25 46° NNW
Aureole 2 Rocket 4.0 20:46:59 10° NNW 20:50:13 41° WNW 20:50:13 41° WNW
Hubble Space Telescope 2.5 20:52:49 10° WSW 20:55:02 30° WSW 20:55:02 30° WSW
COSMOS 2428 4.2 20:55:39 10° NW 21:00:43 34° WSW 21:05:48 10° SSW
Centaur D AC-28 3.1 20:58:25 10° WSW 21:02:53 62° SSE 21:03:27 60° SE
Cosmos 2333 Rocket 2.4 20:58:14 10° NNW 21:03:42 70° W 21:03:42 70° W
Cosmos 2297 Rocket 2.9 21:01:59 10° SW 21:07:26 50° WNW 21:08:58 39° NNW
Atlas 2A Centaur Rocket 4.3 21:03:27 10° SW 21:11:47 28° SSW 21:11:47 28° SSW
Cosmos 2219 Rocket 4.0 21:32:24 10° NW 21:37:00 27° WSW 21:37:22 26° WSW
